LA4GY-1 Weather Reports


Display with metric or nautical units.
time (UTC)temp
F
wind
direction
speed
MPH
gust
MPH
rain 1hr
in
rain 24hr
in
rain mn
in
humidity
%
barometer
mb
20260904023640 53 307 0.0 0.0 0.00 0.19 0.00 93 1001.2
20260904022640 53 310 0.0 0.0 0.00 0.20 0.00 93 1001.2
20260904021610 53 348 0.0 0.0 0.00 0.20 0.00 93 1001.2
20260904020610 53 346 0.0 0.0 0.00 0.20 0.00 93 1001.3
20260904015540 53 346 0.0 0.0 0.00 0.20 0.00 94 1001.3
20260904014510 53 330 0.0 0.0 0.00 0.20 0.00 94 1001.3
20260904013440 53 11 0.0 0.0 0.00 0.20 0.00 94 1001.4
20260904012440 52 324 0.0 0.0 0.00 0.20 0.00 94 1001.5
20260904011440 52 345 0.0 0.0 0.00 0.20 0.00 94 1001.5
20260904010440 52 317 0.0 0.0 0.00 0.20 0.00 94 1001.6
20260904005410 52 315 0.0 0.0 0.00 0.20 0.00 93 1001.5
20260904004410 52 313 0.0 0.0 0.00 0.20 0.00 93 1001.6
20260904003340 52 311 0.0 0.0 0.00 0.20 0.00 93 1001.6
20260904002310 52 311 0.0 0.0 0.00 0.20 0.00 93 1001.6
20260904001240 52 311 0.0 0.0 0.00 0.20 0.00 93 1001.7
20260904000241 52 309 0.0 0.0 0.00 0.20 0.00 93 1001.8
20260903235240 52 308 0.0 0.0 0.00 0.20 0.00 94 1001.8
20260903234239 52 307 0.0 0.0 0.00 0.20 0.00 94 1001.8
20260903233239 52 307 0.0 0.0 0.00 0.20 0.00 93 1001.6
20260903232239 52 307 0.0 0.0 0.00 0.20 0.00 94 1001.7
20260903231209 52 307 0.0 0.0 0.00 0.20 0.00 94 1001.8
20260903230209 52 307 0.0 0.0 0.00 0.20 0.00 94 1001.8
20260903225139 52 307 0.0 0.0 0.00 0.20 0.00 94 1001.9
20260903224109 52 307 0.0 0.0 0.00 0.20 0.00 94 1001.8
20260903223039 52 307 0.0 0.0 0.00 0.20 0.00 93 1001.9
20260903222009 52 306 0.0 0.0 0.00 0.20 0.00 93 1001.9
20260903221009 52 306 0.0 0.0 0.00 0.21 0.00 93 1001.9
20260903215939 52 306 0.0 0.0 0.00 0.21 0.21 93 1002.0
20260903214939 53 306 0.0 0.0 0.00 0.21 0.21 93 1001.9
20260903213939 53 306 0.0 0.0 0.00 0.21 0.21 93 1002.0
20260903212939 53 306 0.0 0.0 0.00 0.21 0.21 93 1001.9
20260903211909 53 306 0.0 0.0 0.00 0.21 0.21 94 1001.8
20260903210909 53 306 0.0 0.0 0.00 0.21 0.21 93 1001.9
20260903205909 54 306 0.0 0.0 0.00 0.22 0.21 93 1001.8
20260903204839 54 306 0.0 0.0 0.00 0.22 0.21 93 1001.8
20260903203839 54 306 0.0 0.0 0.00 0.23 0.21 93 1001.9
20260903202839 54 306 0.0 0.0 0.00 0.23 0.21 93 1001.9
20260903201809 55 306 0.0 0.0 0.00 0.24 0.21 93 1001.9
20260903200809 55 306 0.0 0.0 0.00 0.24 0.21 93 1002.0
20260903195809 55 306 0.0 0.0 0.00 0.24 0.21 93 1002.0
20260903194739 55 306 0.0 0.0 0.00 0.24 0.21 93 1002.1
20260903193739 55 306 0.0 0.0 0.00 0.24 0.21 93 1002.1
20260903192739 55 306 0.0 0.0 0.00 0.24 0.21 93 1002.1
20260903191739 55 306 0.0 0.0 0.01 0.24 0.21 93 1002.0
20260903190739 55 306 0.0 0.0 0.01 0.24 0.21 92 1001.9
20260903185709 56 306 0.0 0.0 0.01 0.24 0.21 92 1001.9
20260903184709 56 306 0.0 0.0 0.01 0.24 0.21 92 1001.8
20260903183639 56 306 0.0 0.0 0.01 0.24 0.21 92 1001.9
20260903182639 56 306 0.0 0.0 0.01 0.24 0.21 92 1001.8
20260903181609 56 306 0.0 0.0 0.01 0.24 0.20 91 1001.9
20260903180609 57 306 0.0 0.0 0.02 0.24 0.20 91 1001.8
20260903175609 57 306 0.0 0.0 0.02 0.24 0.20 90 1001.8
20260903174539 58 306 0.0 0.0 0.02 0.24 0.20 90 1001.8
20260903173509 58 306 0.0 0.0 0.02 0.24 0.20 90 1001.7
20260903172509 58 172 0.0 0.0 0.02 0.24 0.20 90 1001.6
20260903171439 58 172 0.0 0.0 0.01 0.23 0.20 91 1001.6
20260903170439 58 172 0.0 0.0 0.00 0.22 0.19 90 1001.7
20260903165439 58 172 0.0 0.0 0.00 0.22 0.19 88 1001.7
20260903164439 59 172 0.0 0.0 0.00 0.22 0.19 88 1001.8
20260903163439 59 172 0.0 0.0 0.00 0.22 0.19 86 1001.5
20260903162439 59 173 0.0 0.0 0.00 0.22 0.19 86 1001.5
20260903161439 59 173 0.0 0.0 0.00 0.22 0.19 87 1001.4
20260903160409 59 173 0.0 0.0 0.00 0.22 0.19 89 1001.4
20260903155409 59 173 0.0 0.0 0.00 0.22 0.19 87 1001.4
20260903154409 59 173 0.0 0.0 0.00 0.22 0.19 86 1001.4
20260903153409 59 211 0.0 0.0 0.00 0.22 0.19 86 1001.4
20260903152339 59 211 0.0 0.0 0.00 0.22 0.19 87 1001.3
20260903151309 59 211 0.0 0.0 0.00 0.22 0.19 87 1001.3
20260903150309 59 211 0.0 0.0 0.00 0.22 0.19 88 1001.2
20260903145308 58 211 0.0 0.0 0.00 0.22 0.19 87 1001.4
20260903144308 59 177 0.0 0.0 0.00 0.22 0.19 86 1001.5
20260903143238 59 195 0.0 0.0 0.00 0.22 0.19 85 1001.4
20260903142208 59 210 0.0 0.0 0.00 0.22 0.19 86 1001.4
20260903141208 59 195 0.0 0.0 0.00 0.22 0.19 87 1001.3
20260903140208 59 186 0.0 0.0 0.00 0.22 0.19 88 1001.3
20260903135138 58 203 0.0 0.0 0.00 0.22 0.19 88 1001.4
20260903134138 58 202 0.0 0.0 0.00 0.22 0.19 88 1001.5
20260903133108 58 203 0.0 0.0 0.00 0.22 0.19 88 1001.4
20260903132108 58 203 0.0 0.0 0.00 0.22 0.19 89 1001.3
20260903131108 58 203 0.0 0.0 0.00 0.22 0.19 88 1001.4
20260903130108 58 198 0.0 0.0 0.00 0.22 0.19 87 1001.5
20260903125038 58 178 0.0 0.0 0.00 0.22 0.19 88 1001.4
20260903124038 58 194 0.0 0.0 0.00 0.22 0.19 91 1001.4
20260903123038 57 195 0.0 0.0 0.00 0.22 0.19 89 1001.3
20260903122038 57 178 0.0 0.0 0.00 0.22 0.19 89 1001.3
20260903121038 57 161 0.0 0.0 0.00 0.22 0.19 89 1001.4
20260903120038 57 145 0.0 0.0 0.00 0.22 0.19 88 1001.4
20260903115038 57 184 0.0 0.0 0.00 0.22 0.19 89 1001.3
20260903114008 57 185 0.0 0.0 0.00 0.22 0.19 89 1001.2
20260903113008 57 185 0.0 0.0 0.00 0.22 0.19 88 1001.2
20260903112008 56 185 0.0 0.0 0.00 0.22 0.19 88 1001.1
20260903111008 56 185 0.0 0.0 0.00 0.22 0.19 89 1001.1
20260903105938 56 185 0.0 0.0 0.00 0.22 0.19 89 1001.0
20260903104938 56 185 0.0 0.0 0.00 0.22 0.19 89 1001.0
20260903103938 56 185 0.0 0.0 0.00 0.22 0.19 89 1001.0
20260903102938 56 185 0.0 0.0 0.00 0.22 0.19 90 1000.9
20260903101938 56 185 0.0 0.0 0.00 0.22 0.19 91 1000.9
20260903100938 55 182 0.0 0.0 0.00 0.22 0.19 92 1000.9
20260903095938 55 197 0.0 0.0 0.00 0.22 0.19 92 1000.8
20260903094938 55 197 0.0 0.0 0.00 0.22 0.19 92 1000.8
20260903093938 55 197 0.0 0.0 0.00 0.22 0.19 92 1000.9
20260903092938 55 196 0.0 0.0 0.00 0.22 0.19 92 1000.8
20260903091908 54 196 0.0 0.0 0.00 0.22 0.19 93 1000.6
20260903090908 54 197 0.0 0.0 0.00 0.22 0.19 91 1000.6
20260903085838 54 197 0.0 0.0 0.00 0.22 0.19 92 1000.6
20260903084838 54 197 0.0 0.0 0.00 0.22 0.19 92 1000.5
20260903083807 54 200 0.0 0.0 0.00 0.22 0.19 93 1000.5
20260903082808 54 207 0.0 0.0 0.00 0.22 0.19 93 1000.5
20260903081737 54 207 0.0 0.0 0.00 0.22 0.19 93 1000.4
20260903080737 55 223 0.0 0.0 0.00 0.22 0.19 93 1000.4
20260903075737 54 223 0.0 0.0 0.00 0.22 0.19 93 1000.6
20260903074738 54 223 0.0 0.0 0.00 0.22 0.19 93 1000.5
20260903073707 54 223 0.0 0.0 0.00 0.22 0.19 93 1000.5
20260903072707 54 223 0.0 0.0 0.00 0.22 0.19 93 1000.5
20260903071637 53 224 0.0 0.0 0.00 0.22 0.19 93 1000.5
20260903070607 53 223 0.0 0.0 0.00 0.22 0.19 93 1000.5
20260903065607 54 223 0.0 0.0 0.01 0.22 0.19 93 1000.5
20260903064608 53 224 0.0 0.0 0.01 0.22 0.19 93 1000.4
20260903063607 53 224 0.0 0.0 0.02 0.22 0.19 93 1000.5
20260903062607 53 223 0.0 0.0 0.02 0.22 0.19 92 1000.4
20260903061607 53 223 0.0 0.0 0.03 0.22 0.19 92 1000.4
20260903060537 53 225 0.0 0.0 0.04 0.22 0.19 92 1000.4
20260903055537 53 225 0.0 0.0 0.04 0.21 0.18 93 1000.4
20260903054537 53 225 0.0 0.0 0.05 0.21 0.18 92 1000.4
20260903053537 53 225 0.0 0.0 0.05 0.20 0.17 92 1000.4
20260903052507 53 225 0.0 0.0 0.05 0.20 0.17 92 1000.5
20260903051437 53 224 0.0 0.0 0.05 0.19 0.16 92 1000.5
20260903050437 53 225 0.0 0.0 0.05 0.18 0.15 93 1000.4
20260903045437 52 225 0.0 0.0 0.06 0.17 0.14 92 1000.3
20260903044437 52 225 0.0 0.0 0.06 0.17 0.13 92 1000.3
20260903043437 53 225 0.0 0.0 0.06 0.16 0.13 92 1000.3
20260903042437 53 225 0.0 0.0 0.06 0.15 0.12 92 1000.2
20260903041437 53 224 0.0 0.0 0.06 0.14 0.11 92 1000.2
20260903040437 53 225 0.0 0.0 0.07 0.13 0.10 92 1000.2
20260903035437 53 225 0.0 0.0 0.06 0.12 0.09 92 1000.1
20260903034437 53 225 0.0 0.0 0.06 0.11 0.08 92 1000.1
20260903033437 53 225 0.0 0.0 0.05 0.10 0.07 92 1000.1
20260903032437 53 224 0.0 0.0 0.05 0.09 0.06 92 1000.0
20260903031437 53 224 0.0 0.0 0.04 0.09 0.06 93 1000.1
20260903030437 53 225 0.0 0.0 0.02 0.06 0.03 93 1000.2
20260903025437 53 224 0.0 0.0 0.02 0.06 0.02 93 1000.2
20260903024436 52 224 0.0 0.0 0.02 0.06 0.02 93 1000.1